Device:,Web Sensor
s/n:,17941547

Time,Channel 1,Channel 2,
,[�C],[%RH],
2024-04-20 15:45:06,24.8,31.7,
2024-04-20 15:35:06,24.8,31.7,
2024-04-20 15:25:06,24.8,31.1,
2024-04-20 15:15:06,24.9,31.1,
2024-04-20 15:05:06,24.9,31.1,
2024-04-20 14:55:06,24.9,31.1,
2024-04-20 14:45:06,24.9,30.6,
2024-04-20 14:35:06,25.0,30.6,
2024-04-20 14:25:06,25.0,30.6,
2024-04-20 14:15:06,25.0,30.6,
2024-04-20 14:05:06,25.0,30.6,
2024-04-20 13:55:06,24.9,30.6,
2024-04-20 13:45:06,24.8,30.6,
2024-04-20 13:35:06,24.8,30.6,
2024-04-20 13:25:06,24.8,30.6,
2024-04-20 13:15:06,24.7,30.6,
2024-04-20 13:05:06,24.6,30.6,
2024-04-20 12:55:06,24.6,30.6,
2024-04-20 12:45:06,24.5,30.6,
2024-04-20 12:35:06,24.5,31.1,
2024-04-20 12:25:06,24.5,31.1,
2024-04-20 12:15:06,24.5,31.1,
2024-04-20 12:05:06,24.4,31.1,
2024-04-20 11:55:06,24.4,31.1,
2024-04-20 11:45:06,24.4,31.1,
2024-04-20 11:35:06,24.4,30.6,
2024-04-20 11:25:06,24.4,30.6,
2024-04-20 11:15:06,24.4,30.6,
2024-04-20 11:05:06,24.4,30.6,
2024-04-20 10:55:06,24.4,30.6,
2024-04-20 10:45:06,24.4,30.6,
2024-04-20 10:35:06,24.4,30.6,
2024-04-20 10:25:06,24.4,30.6,
2024-04-20 10:15:06,24.4,30.6,
2024-04-20 10:05:06,24.3,30.6,
2024-04-20 09:55:06,24.3,30.6,
2024-04-20 09:45:06,24.3,30.6,
2024-04-20 09:35:06,24.2,30.0,
2024-04-20 09:25:06,24.1,30.0,
2024-04-20 09:15:06,24.1,29.5,
2024-04-20 09:05:06,24.1,29.7,
2024-04-20 08:55:06,24.1,29.5,
2024-04-20 08:45:06,24.1,29.5,
2024-04-20 08:35:06,24.1,29.5,
2024-04-20 08:25:06,24.0,29.5,
2024-04-20 08:15:06,24.0,29.5,
2024-04-20 08:05:06,24.0,29.5,
2024-04-20 07:55:06,24.0,29.5,
2024-04-20 07:45:06,24.0,29.5,
2024-04-20 07:35:06,24.0,29.5,
2024-04-20 07:25:06,24.0,29.5,
2024-04-20 07:15:06,24.0,29.5,
2024-04-20 07:05:06,24.0,29.7,
2024-04-20 06:55:06,24.0,29.5,
2024-04-20 06:45:06,24.0,29.7,
2024-04-20 06:35:06,24.0,29.5,
2024-04-20 06:25:06,24.0,29.5,
2024-04-20 06:15:06,24.0,29.5,
2024-04-20 06:05:06,24.0,29.5,
2024-04-20 05:55:06,24.0,29.5,
2024-04-20 05:45:06,24.0,29.5,
2024-04-20 05:35:06,24.0,29.5,
2024-04-20 05:25:06,24.0,29.5,
2024-04-20 05:15:06,24.0,29.5,
2024-04-20 05:05:06,24.0,29.5,
2024-04-20 04:55:06,24.0,29.5,
2024-04-20 04:45:06,24.0,29.5,
2024-04-20 04:35:06,24.1,29.5,
2024-04-20 04:25:06,24.1,29.7,
2024-04-20 04:15:06,24.1,29.5,
2024-04-20 04:05:06,24.1,29.5,
2024-04-20 03:55:06,24.1,29.5,
2024-04-20 03:45:06,24.1,29.5,
2024-04-20 03:35:06,24.1,29.5,
2024-04-20 03:25:06,24.1,29.5,
2024-04-20 03:15:06,24.1,29.5,
2024-04-20 03:05:06,24.1,29.0,
2024-04-20 02:55:06,24.1,29.0,
2024-04-20 02:45:06,24.1,29.5,
2024-04-20 02:35:06,24.1,29.0,
2024-04-20 02:25:06,24.1,29.0,
2024-04-20 02:15:06,24.1,29.5,
2024-04-20 02:05:06,24.1,29.0,
2024-04-20 01:55:06,24.1,29.0,
2024-04-20 01:45:06,24.1,29.0,
2024-04-20 01:35:06,24.2,29.0,
2024-04-20 01:25:06,24.2,29.0,
2024-04-20 01:15:06,24.2,29.0,
2024-04-20 01:05:06,24.2,29.0,
2024-04-20 00:55:06,24.2,29.0,
2024-04-20 00:45:06,24.2,29.0,
2024-04-20 00:35:06,24.2,29.0,
2024-04-20 00:25:06,24.3,29.0,
2024-04-20 00:15:06,24.3,28.5,
2024-04-20 00:05:06,24.3,29.0,
2024-04-19 23:55:06,24.3,29.0,
2024-04-19 23:45:06,24.3,28.5,
2024-04-19 23:35:06,24.3,28.5,
2024-04-19 23:25:06,24.3,28.5,
2024-04-19 23:15:06,24.3,28.5,
2024-04-19 23:05:06,24.4,28.5,
2024-04-19 22:55:06,24.4,28.5,
2024-04-19 22:45:06,24.4,28.5,
2024-04-19 22:35:06,24.4,28.5,
2024-04-19 22:25:06,24.4,28.7,
2024-04-19 22:15:06,24.4,28.5,
2024-04-19 22:05:06,24.4,28.5,
2024-04-19 21:55:06,24.4,28.5,
2024-04-19 21:45:06,24.5,28.5,
2024-04-19 21:35:06,24.5,28.5,
2024-04-19 21:25:06,24.5,28.5,
2024-04-19 21:15:06,24.6,28.5,
2024-04-19 21:05:06,24.6,28.5,
2024-04-19 20:55:06,24.6,28.0,
2024-04-19 20:45:06,24.6,28.5,
2024-04-19 20:35:06,24.7,28.0,
2024-04-19 20:25:06,24.8,28.0,
2024-04-19 20:15:06,24.8,28.0,
2024-04-19 20:05:06,24.8,28.0,
2024-04-19 19:55:06,24.9,27.5,
2024-04-19 19:45:06,25.0,27.5,
2024-04-19 19:35:06,25.1,27.5,
2024-04-19 19:25:06,25.2,27.5,
2024-04-19 19:15:06,25.3,27.5,
2024-04-19 19:05:06,25.5,27.0,
2024-04-19 18:55:06,25.6,27.0,
2024-04-19 18:45:06,25.8,26.4,
2024-04-19 18:35:06,25.8,26.4,
2024-04-19 18:25:06,25.9,26.4,
2024-04-19 18:15:06,26.0,26.5,
2024-04-19 18:05:06,25.9,26.4,
2024-04-19 17:55:06,26.1,26.5,
2024-04-19 17:45:06,25.9,26.4,
2024-04-19 17:35:06,25.7,27.0,
2024-04-19 17:25:06,25.4,27.0,
2024-04-19 17:15:06,25.3,27.5,
2024-04-19 17:05:06,25.4,27.5,
2024-04-19 16:55:06,25.4,27.0,
2024-04-19 16:45:06,25.4,27.5,
2024-04-19 16:35:06,25.4,26.9,
2024-04-19 16:25:06,25.4,27.5,
2024-04-19 16:15:06,25.3,27.5,
2024-04-19 16:05:06,25.2,27.5,
2024-04-19 15:55:06,25.2,27.5,
2024-04-19 15:45:06,25.3,26.9,
2024-04-19 15:35:06,25.3,27.5,
2024-04-19 15:25:06,25.3,27.5,
2024-04-19 15:15:06,25.3,27.5,
2024-04-19 15:05:06,25.2,27.5,
2024-04-19 14:55:06,25.1,27.5,
2024-04-19 14:45:06,25.1,26.9,
2024-04-19 14:35:06,25.1,26.9,
2024-04-19 14:25:06,25.2,27.5,
2024-04-19 14:15:06,25.2,26.9,
2024-04-19 14:05:06,25.1,26.9,
2024-04-19 13:55:06,25.0,26.4,
2024-04-19 13:45:06,24.9,26.4,
2024-04-19 13:35:06,24.9,26.4,
2024-04-19 13:25:06,24.8,26.4,
2024-04-19 13:15:06,24.8,26.6,
2024-04-19 13:05:06,24.8,26.4,
2024-04-19 12:55:06,24.8,26.4,
2024-04-19 12:45:06,24.8,27.4,
2024-04-19 12:35:06,24.8,26.9,
2024-04-19 12:25:06,24.7,26.9,
2024-04-19 12:15:06,24.7,27.4,
2024-04-19 12:05:06,24.7,27.4,
2024-04-19 11:55:06,24.6,28.0,
2024-04-19 11:45:06,24.6,28.0,
2024-04-19 11:35:06,24.6,28.0,
2024-04-19 11:25:06,24.6,28.0,
2024-04-19 11:15:06,24.5,28.0,
2024-04-19 11:05:06,24.4,28.1,
2024-04-19 10:55:06,24.4,27.4,
2024-04-19 10:45:06,24.3,27.4,
2024-04-19 10:35:06,24.3,27.4,
2024-04-19 10:25:06,24.2,27.4,
2024-04-19 10:15:06,24.1,27.6,
2024-04-19 10:05:06,24.1,27.4,
2024-04-19 09:55:06,24.0,27.4,
2024-04-19 09:45:06,23.9,27.4,
2024-04-19 09:35:06,23.9,27.4,
2024-04-19 09:25:06,23.8,27.4,
2024-04-19 09:15:06,23.6,27.4,
2024-04-19 09:05:06,23.5,27.4,
2024-04-19 08:55:06,23.4,27.4,
2024-04-19 08:45:06,23.3,27.4,
2024-04-19 08:35:06,23.1,27.5,
2024-04-19 08:25:06,22.9,27.5,
2024-04-19 08:15:06,22.7,27.5,
2024-04-19 08:05:06,22.4,27.5,
2024-04-19 07:55:06,22.1,27.3,
2024-04-19 07:45:06,21.6,28.0,
2024-04-19 07:35:06,20.8,29.0,
2024-04-19 07:25:06,18.6,30.4,
2024-04-19 07:15:06,18.6,29.3,
2024-04-19 07:05:06,19.1,28.3,
2024-04-19 06:55:06,19.7,27.8,
2024-04-19 06:45:06,20.9,25.8,
2024-04-19 06:35:06,22.6,24.3,
2024-04-19 06:25:06,24.1,27.6,
2024-04-19 06:15:06,24.1,27.4,
2024-04-19 06:05:06,24.1,26.9,
2024-04-19 05:55:06,24.2,26.9,
2024-04-19 05:45:06,24.3,27.4,
2024-04-19 05:35:06,24.3,28.5,
2024-04-19 05:25:06,24.3,29.5,
2024-04-19 05:15:06,24.4,29.5,
2024-04-19 05:05:06,24.4,29.5,
2024-04-19 04:55:06,24.4,29.5,
2024-04-19 04:45:06,24.4,29.5,
2024-04-19 04:35:06,24.4,29.5,
2024-04-19 04:25:06,24.4,29.5,
2024-04-19 04:15:06,24.4,29.5,
2024-04-19 04:05:06,24.4,29.5,
2024-04-19 03:55:06,24.4,29.5,
2024-04-19 03:45:06,24.4,29.5,
2024-04-19 03:35:06,24.4,29.5,
2024-04-19 03:25:06,24.4,29.5,
2024-04-19 03:15:06,24.4,29.5,
2024-04-19 03:05:06,24.4,29.5,
2024-04-19 02:55:06,24.4,29.5,
2024-04-19 02:45:06,24.4,29.5,
2024-04-19 02:35:06,24.4,29.5,
2024-04-19 02:25:06,24.4,29.5,
2024-04-19 02:15:06,24.4,29.7,
2024-04-19 02:05:06,24.4,29.5,
2024-04-19 01:55:06,24.4,29.5,
2024-04-19 01:45:06,24.4,29.5,
2024-04-19 01:35:06,24.4,29.5,
2024-04-19 01:25:06,24.4,29.5,
2024-04-19 01:15:06,24.4,29.5,
2024-04-19 01:05:06,24.4,29.5,
2024-04-19 00:55:06,24.4,29.5,
2024-04-19 00:45:06,24.4,29.5,
2024-04-19 00:35:06,24.4,29.5,
2024-04-19 00:25:06,24.4,29.5,
2024-04-19 00:15:06,24.4,29.5,
2024-04-19 00:05:06,24.4,29.5,
2024-04-18 23:55:06,24.5,29.5,
2024-04-18 23:45:06,24.5,29.5,
2024-04-18 23:35:06,24.4,29.5,
2024-04-18 23:25:06,24.5,29.5,
2024-04-18 23:15:06,24.5,29.5,
2024-04-18 23:05:06,24.5,29.7,
2024-04-18 22:55:06,24.6,29.5,
2024-04-18 22:45:06,24.6,29.7,
2024-04-18 22:35:06,24.6,29.5,
2024-04-18 22:25:06,24.6,29.5,
2024-04-18 22:15:06,24.6,29.5,
2024-04-18 22:05:06,24.6,29.5,
2024-04-18 21:55:06,24.6,29.5,
2024-04-18 21:45:06,24.6,29.5,
2024-04-18 21:35:06,24.7,29.5,
2024-04-18 21:25:06,24.7,29.6,
2024-04-18 21:15:06,24.7,29.5,
2024-04-18 21:05:06,24.8,29.6,
2024-04-18 20:55:06,24.8,29.5,
2024-04-18 20:45:06,24.8,29.6,
2024-04-18 20:35:06,24.9,29.6,
2024-04-18 20:25:06,24.9,29.6,
2024-04-18 20:15:06,24.9,29.6,
2024-04-18 20:05:06,25.0,29.6,
2024-04-18 19:55:06,25.0,29.0,
2024-04-18 19:45:06,25.1,29.2,
2024-04-18 19:35:06,25.1,29.0,
2024-04-18 19:25:06,25.2,28.5,
2024-04-18 19:15:06,25.3,28.5,
2024-04-18 19:05:06,25.4,28.5,
2024-04-18 18:55:06,25.4,28.5,
2024-04-18 18:45:06,25.3,29.1,
2024-04-18 18:35:06,25.3,29.1,
2024-04-18 18:25:06,25.3,29.1,
2024-04-18 18:15:06,25.4,28.5,
2024-04-18 18:05:06,25.4,28.5,
2024-04-18 17:55:06,25.6,28.5,
2024-04-18 17:45:06,25.6,28.5,
2024-04-18 17:35:06,25.7,28.6,
2024-04-18 17:25:06,25.7,28.5,
2024-04-18 17:15:06,25.7,28.6,
2024-04-18 17:05:06,25.7,28.6,
2024-04-18 16:55:06,25.8,29.6,
2024-04-18 16:45:06,25.8,30.1,
2024-04-18 16:35:06,25.8,30.7,
2024-04-18 16:25:06,25.8,30.7,
2024-04-18 16:15:06,25.9,30.7,
2024-04-18 16:05:06,25.8,30.7,
2024-04-18 15:55:06,25.8,30.7,
2024-04-18 15:45:06,25.8,30.7,
2024-04-18 15:35:06,25.6,30.7,
2024-04-18 15:25:06,25.5,31.2,
2024-04-18 15:15:06,25.5,31.2,
2024-04-18 15:05:06,25.4,31.2,
2024-04-18 14:55:06,25.4,31.2,
2024-04-18 14:45:06,25.4,31.2,
2024-04-18 14:35:06,25.4,31.2,
2024-04-18 14:25:06,25.4,31.2,
2024-04-18 14:15:06,25.4,31.2,
2024-04-18 14:05:06,25.4,31.7,
2024-04-18 13:55:06,25.3,31.2,
2024-04-18 13:45:06,25.3,31.7,
2024-04-18 13:35:06,25.3,31.7,
2024-04-18 13:25:06,25.3,31.7,
2024-04-18 13:15:06,25.2,31.7,
2024-04-18 13:05:06,25.2,31.7,
2024-04-18 12:55:06,25.1,31.7,
2024-04-18 12:45:06,25.1,31.7,
2024-04-18 12:35:06,25.1,31.7,
2024-04-18 12:25:06,25.1,31.7,
2024-04-18 12:15:06,25.0,31.7,
2024-04-18 12:05:06,25.0,31.7,
2024-04-18 11:55:06,24.9,31.7,
2024-04-18 11:45:06,24.9,31.7,
2024-04-18 11:35:06,24.8,31.7,
2024-04-18 11:25:06,24.9,31.7,
2024-04-18 11:15:06,24.9,31.7,
2024-04-18 11:05:06,24.9,31.7,
2024-04-18 10:55:06,24.9,31.7,
2024-04-18 10:45:06,24.9,31.7,
2024-04-18 10:35:06,24.9,31.7,
2024-04-18 10:25:06,24.8,31.7,
2024-04-18 10:15:06,24.8,31.7,
2024-04-18 10:05:06,24.8,31.7,
2024-04-18 09:55:06,24.8,31.7,
2024-04-18 09:45:06,24.7,31.7,
2024-04-18 09:35:06,24.7,32.2,
2024-04-18 09:25:06,24.6,32.2,
2024-04-18 09:15:06,24.6,32.2,
2024-04-18 09:05:06,24.6,32.2,
2024-04-18 08:55:06,24.6,31.7,
2024-04-18 08:45:06,24.6,32.2,
2024-04-18 08:35:06,24.6,32.2,
2024-04-18 08:25:06,24.6,32.2,
2024-04-18 08:15:06,24.6,32.2,
2024-04-18 08:05:06,24.6,32.4,
2024-04-18 07:55:06,24.6,32.2,
2024-04-18 07:45:06,24.6,32.2,
2024-04-18 07:35:06,24.6,32.2,
2024-04-18 07:25:06,24.6,32.7,
2024-04-18 07:15:06,24.6,32.2,
2024-04-18 07:05:06,24.6,32.2,
2024-04-18 06:55:06,24.6,32.4,
2024-04-18 06:45:06,24.6,32.2,
2024-04-18 06:35:06,24.6,32.7,
2024-04-18 06:25:06,24.6,32.2,
2024-04-18 06:15:06,24.6,32.7,
2024-04-18 06:05:06,24.6,32.7,
2024-04-18 05:55:06,24.6,32.7,
2024-04-18 05:45:06,24.6,32.2,
2024-04-18 05:35:06,24.6,32.7,
2024-04-18 05:25:06,24.6,32.2,
2024-04-18 05:15:06,24.6,32.7,
2024-04-18 05:05:06,24.6,32.7,
2024-04-18 04:55:06,24.6,32.7,
2024-04-18 04:45:06,24.6,32.7,
2024-04-18 04:35:06,24.6,32.7,
2024-04-18 04:25:06,24.6,32.7,
2024-04-18 04:15:06,24.6,32.7,
2024-04-18 04:05:06,24.6,32.7,
2024-04-18 03:55:06,24.6,32.7,
2024-04-18 03:45:06,24.6,32.2,
2024-04-18 03:35:06,24.6,32.7,
2024-04-18 03:25:06,24.6,32.7,
2024-04-18 03:15:06,24.7,32.7,
2024-04-18 03:05:06,24.7,32.7,
2024-04-18 02:55:06,24.7,32.7,
2024-04-18 02:45:06,24.7,32.7,
2024-04-18 02:35:06,24.7,32.7,
2024-04-18 02:25:06,24.7,32.2,
2024-04-18 02:15:06,24.7,32.2,
2024-04-18 02:05:06,24.7,32.7,
2024-04-18 01:55:06,24.7,32.7,
2024-04-18 01:45:06,24.7,32.2,
2024-04-18 01:35:06,24.7,32.2,
2024-04-18 01:25:06,24.7,32.2,
2024-04-18 01:15:06,24.7,32.7,
2024-04-18 01:05:06,24.8,32.7,
2024-04-18 00:55:06,24.8,32.2,
2024-04-18 00:45:06,24.8,32.2,
2024-04-18 00:35:06,24.8,32.7,
2024-04-18 00:25:06,24.8,32.7,
2024-04-18 00:15:06,24.8,32.7,
2024-04-18 00:05:06,24.8,32.2,
2024-04-17 23:55:06,24.8,32.2,
2024-04-17 23:45:06,24.8,32.7,
2024-04-17 23:35:06,24.8,32.7,
2024-04-17 23:25:06,24.8,32.2,
2024-04-17 23:15:06,24.8,32.2,
2024-04-17 23:05:06,24.8,32.7,
2024-04-17 22:55:06,24.8,32.2,
2024-04-17 22:45:06,24.8,32.7,
2024-04-17 22:35:06,24.8,32.7,
2024-04-17 22:25:06,24.8,32.7,
2024-04-17 22:15:06,24.8,32.2,
2024-04-17 22:05:06,24.9,32.7,
2024-04-17 21:55:06,24.9,32.2,
2024-04-17 21:45:06,24.9,32.2,
2024-04-17 21:35:06,24.9,32.7,
2024-04-17 21:25:06,24.9,32.2,
2024-04-17 21:15:06,24.9,32.2,
2024-04-17 21:05:06,24.9,32.2,
2024-04-17 20:55:06,24.9,32.2,
2024-04-17 20:45:06,24.9,32.2,
2024-04-17 20:35:06,24.9,32.2,
2024-04-17 20:25:06,24.9,32.2,
2024-04-17 20:15:06,25.0,32.2,
2024-04-17 20:05:06,25.0,32.2,
2024-04-17 19:55:06,25.0,32.2,
2024-04-17 19:45:06,25.1,32.2,
2024-04-17 19:35:06,25.1,32.2,
2024-04-17 19:25:06,25.1,32.2,
2024-04-17 19:15:06,25.1,31.7,
2024-04-17 19:05:06,25.1,31.7,
2024-04-17 18:55:06,25.1,32.2,
2024-04-17 18:45:06,25.1,31.7,
2024-04-17 18:35:06,25.1,31.7,
2024-04-17 18:25:06,25.2,31.7,
2024-04-17 18:15:06,25.2,31.7,
2024-04-17 18:05:06,25.3,31.7,
2024-04-17 17:55:06,25.3,31.7,
2024-04-17 17:45:06,25.3,31.7,
2024-04-17 17:35:06,25.3,31.7,
2024-04-17 17:25:06,25.3,31.7,
2024-04-17 17:15:06,25.3,31.7,
2024-04-17 17:05:06,25.4,31.7,
2024-04-17 16:55:06,25.4,31.7,
2024-04-17 16:45:06,25.4,31.7,
2024-04-17 16:35:06,25.4,31.2,
2024-04-17 16:25:06,25.4,31.7,
2024-04-17 16:15:06,25.4,31.7,
2024-04-17 16:05:06,25.4,31.7,
2024-04-17 15:55:06,25.4,31.7,
2024-04-17 15:45:06,25.4,31.7,
2024-04-17 15:35:06,25.4,31.2,
2024-04-17 15:25:06,25.4,31.2,
2024-04-17 15:15:06,25.4,31.7,
2024-04-17 15:05:06,25.4,31.7,
2024-04-17 14:55:06,25.4,31.2,
2024-04-17 14:45:06,25.4,31.2,
2024-04-17 14:35:06,25.4,31.7,
2024-04-17 14:25:06,25.4,31.2,
2024-04-17 14:15:06,25.4,31.2,
2024-04-17 14:05:06,25.4,31.2,
2024-04-17 13:55:06,25.3,31.7,
2024-04-17 13:45:06,25.3,31.2,
2024-04-17 13:35:06,25.3,31.2,
2024-04-17 13:25:06,25.3,31.2,
2024-04-17 13:15:06,25.3,30.7,
2024-04-17 13:05:06,25.3,30.7,
2024-04-17 12:55:06,25.4,31.2,
2024-04-17 12:45:06,25.3,30.6,
2024-04-17 12:35:06,25.3,30.7,
2024-04-17 12:25:06,25.3,30.6,
2024-04-17 12:15:06,25.3,30.6,
2024-04-17 12:05:06,25.2,30.6,
2024-04-17 11:55:06,25.1,31.2,
2024-04-17 11:45:06,25.1,30.6,
2024-04-17 11:35:06,25.1,31.2,
2024-04-17 11:25:06,25.1,30.6,
2024-04-17 11:15:06,25.1,30.6,
2024-04-17 11:05:06,25.0,30.6,
2024-04-17 10:55:06,25.0,30.6,
2024-04-17 10:45:06,25.0,30.6,
2024-04-17 10:35:06,25.0,30.6,
2024-04-17 10:25:06,25.0,30.6,
2024-04-17 10:15:06,25.0,30.6,
2024-04-17 10:05:06,25.0,30.6,
2024-04-17 09:55:06,25.0,30.6,
2024-04-17 09:45:06,25.0,30.6,
2024-04-17 09:35:06,25.0,30.6,
2024-04-17 09:25:06,25.0,30.6,
2024-04-17 09:15:06,25.0,30.6,
2024-04-17 09:05:06,24.9,30.6,
2024-04-17 08:55:06,24.9,30.6,
2024-04-17 08:45:06,24.9,30.1,
2024-04-17 08:35:06,24.9,30.6,
2024-04-17 08:25:06,24.8,30.1,
2024-04-17 08:15:06,24.8,30.6,
2024-04-17 08:05:06,24.8,30.6,
2024-04-17 07:55:06,24.8,30.1,
2024-04-17 07:45:06,24.8,30.1,
2024-04-17 07:35:06,24.8,30.1,
2024-04-17 07:25:06,24.8,30.1,
2024-04-17 07:15:06,24.8,30.1,
2024-04-17 07:05:06,24.8,30.1,
2024-04-17 06:55:06,24.8,30.1,
2024-04-17 06:45:06,24.8,29.6,
2024-04-17 06:35:06,24.8,29.6,
2024-04-17 06:25:06,24.8,29.6,
2024-04-17 06:15:06,24.9,29.6,
2024-04-17 06:05:06,24.9,30.6,
2024-04-17 05:55:06,24.9,30.6,
2024-04-17 05:45:06,24.9,31.7,
2024-04-17 05:35:06,24.9,31.7,
2024-04-17 05:25:06,24.9,31.1,
2024-04-17 05:15:06,24.9,31.1,
2024-04-17 05:05:06,24.9,31.2,
2024-04-17 04:55:06,24.9,31.7,
2024-04-17 04:45:06,25.0,31.2,
2024-04-17 04:35:06,24.9,31.1,
2024-04-17 04:25:06,24.9,31.2,
2024-04-17 04:15:06,25.0,31.2,
2024-04-17 04:05:06,25.0,31.1,
2024-04-17 03:55:06,25.0,31.2,
2024-04-17 03:45:06,25.0,31.2,
2024-04-17 03:35:06,25.0,31.2,
2024-04-17 03:25:06,25.0,31.2,
2024-04-17 03:15:06,25.0,31.2,
2024-04-17 03:05:06,25.0,31.2,
2024-04-17 02:55:06,25.0,31.2,
2024-04-17 02:45:06,25.0,31.2,
2024-04-17 02:35:06,25.0,31.2,
2024-04-17 02:25:06,25.1,30.6,
2024-04-17 02:15:06,25.1,31.2,
2024-04-17 02:05:06,25.1,31.2,
2024-04-17 01:55:06,25.1,31.2,
2024-04-17 01:45:06,25.1,30.6,
2024-04-17 01:35:06,25.1,31.2,
2024-04-17 01:25:06,25.1,31.2,
2024-04-17 01:15:06,25.1,31.2,
2024-04-17 01:05:06,25.1,30.6,
2024-04-17 00:55:06,25.1,31.2,
2024-04-17 00:45:06,25.1,31.2,
2024-04-17 00:35:06,25.1,31.2,
2024-04-17 00:25:06,25.1,31.2,
2024-04-17 00:15:06,25.1,31.2,
2024-04-17 00:05:06,25.1,31.2,
2024-04-16 23:55:06,25.1,31.2,
2024-04-16 23:45:06,25.1,31.2,
2024-04-16 23:35:06,25.1,30.6,
2024-04-16 23:25:06,25.2,30.6,
2024-04-16 23:15:06,25.2,31.2,
2024-04-16 23:05:06,25.2,30.6,
2024-04-16 22:55:06,25.2,31.2,
2024-04-16 22:45:06,25.2,31.2,
2024-04-16 22:35:06,25.2,30.6,
2024-04-16 22:25:06,25.3,30.6,
2024-04-16 22:15:06,25.3,30.6,
2024-04-16 22:05:06,25.3,30.6,
2024-04-16 21:55:06,25.3,30.6,
2024-04-16 21:45:06,25.3,30.6,
2024-04-16 21:35:06,25.3,30.6,
2024-04-16 21:25:06,25.3,30.6,
2024-04-16 21:15:06,25.4,30.6,
2024-04-16 21:05:06,25.4,30.7,
2024-04-16 20:55:06,25.4,30.7,
2024-04-16 20:45:06,25.4,30.7,
2024-04-16 20:35:06,25.5,30.7,
2024-04-16 20:25:06,25.6,30.7,
2024-04-16 20:15:06,25.6,30.9,
2024-04-16 20:05:06,25.6,30.7,
2024-04-16 19:55:06,25.7,30.7,
2024-04-16 19:45:06,25.8,30.7,
2024-04-16 19:35:06,25.8,30.7,
2024-04-16 19:25:06,25.9,30.1,
2024-04-16 19:15:06,25.9,30.2,
2024-04-16 19:05:06,26.1,29.6,
2024-04-16 18:55:06,26.2,29.6,
2024-04-16 18:45:06,26.3,29.7,
2024-04-16 18:35:06,26.6,29.1,
2024-04-16 18:25:06,26.8,28.6,
2024-04-16 18:15:06,26.9,28.6,
2024-04-16 18:05:06,26.7,29.2,
2024-04-16 17:55:06,26.4,29.1,
2024-04-16 17:45:06,26.1,29.6,
2024-04-16 17:35:06,26.0,29.6,
2024-04-16 17:25:06,25.9,29.6,
2024-04-16 17:15:06,25.9,29.6,
2024-04-16 17:05:06,25.9,29.6,
2024-04-16 16:55:06,25.9,29.6,
2024-04-16 16:45:06,25.9,29.6,
2024-04-16 16:35:06,25.9,29.6,
2024-04-16 16:25:06,25.9,29.6,
2024-04-16 16:15:06,25.9,29.6,
2024-04-16 16:05:06,26.0,29.6,
2024-04-16 15:55:06,26.1,29.6,
2024-04-16 15:45:06,26.1,29.6,
2024-04-16 15:35:06,26.1,29.6,
2024-04-16 15:25:06,26.0,29.6,
2024-04-16 15:15:06,26.0,29.6,
2024-04-16 15:05:06,26.0,29.1,
2024-04-16 14:55:06,26.0,29.6,
2024-04-16 14:45:06,25.9,29.1,
2024-04-16 14:35:06,26.0,28.6,
2024-04-16 14:25:06,26.0,28.6,
2024-04-16 14:15:06,26.1,29.1,
2024-04-16 14:05:06,26.1,29.6,
2024-04-16 13:55:06,26.0,30.2,
2024-04-16 13:45:06,25.9,32.3,
2024-04-16 13:35:06,25.8,32.3,
2024-04-16 13:25:06,25.8,32.3,
2024-04-16 13:15:06,25.8,32.3,
2024-04-16 13:05:06,25.8,32.3,
2024-04-16 12:55:06,25.8,32.3,
2024-04-16 12:45:06,25.8,31.7,
2024-04-16 12:35:06,25.7,31.7,
2024-04-16 12:25:06,25.7,32.3,
2024-04-16 12:15:06,25.7,31.7,
2024-04-16 12:05:06,25.6,31.7,
2024-04-16 11:55:06,25.6,31.7,
2024-04-16 11:45:06,25.5,32.3,
2024-04-16 11:35:06,25.4,32.2,
2024-04-16 11:25:06,25.4,31.7,
2024-04-16 11:15:06,25.4,31.7,
2024-04-16 11:05:06,25.4,31.7,
2024-04-16 10:55:06,25.3,31.7,
2024-04-16 10:45:06,25.3,31.7,
2024-04-16 10:35:06,25.3,31.7,
2024-04-16 10:25:06,25.3,32.2,
2024-04-16 10:15:06,25.3,32.8,
2024-04-16 10:05:06,25.2,32.8,
2024-04-16 09:55:06,25.2,33.8,
2024-04-16 09:45:06,25.1,33.3,
2024-04-16 09:35:06,25.1,33.3,
2024-04-16 09:25:06,25.0,33.3,
2024-04-16 09:15:06,24.9,32.7,
2024-04-16 09:05:06,24.8,32.7,
2024-04-16 08:55:06,24.8,32.2,
2024-04-16 08:45:06,24.9,31.7,
2024-04-16 08:35:06,25.2,32.8,
2024-04-16 08:25:06,25.2,34.9,
2024-04-16 08:15:06,25.2,34.3,
2024-04-16 08:05:06,25.2,34.9,
2024-04-16 07:55:06,25.2,34.3,
2024-04-16 07:45:06,25.1,34.9,
2024-04-16 07:35:06,25.2,34.4,
2024-04-16 07:25:06,25.1,34.3,
2024-04-16 07:15:06,25.1,34.3,
2024-04-16 07:05:06,25.1,34.3,
2024-04-16 06:55:06,25.1,34.9,
2024-04-16 06:45:06,25.1,34.3,
2024-04-16 06:35:06,25.1,33.8,
2024-04-16 06:25:06,25.1,33.8,
2024-04-16 06:15:06,25.1,33.8,
2024-04-16 06:05:06,25.1,33.8,
2024-04-16 05:55:06,25.1,33.8,
2024-04-16 05:45:06,25.1,34.3,
2024-04-16 05:35:06,25.2,34.9,
2024-04-16 05:25:06,25.3,35.9,
2024-04-16 05:15:06,25.3,35.9,
2024-04-16 05:05:06,25.3,35.9,
2024-04-16 04:55:06,25.3,35.9,
2024-04-16 04:45:06,25.3,35.9,
2024-04-16 04:35:06,25.3,35.9,
2024-04-16 04:25:06,25.3,36.5,
2024-04-16 04:15:06,25.3,35.9,
2024-04-16 04:05:06,25.3,35.9,
2024-04-16 03:55:06,25.3,35.9,
2024-04-16 03:45:06,25.3,35.9,
2024-04-16 03:35:06,25.3,35.9,
2024-04-16 03:25:06,25.3,35.9,
2024-04-16 03:15:06,25.3,35.9,
2024-04-16 03:05:06,25.4,35.9,
2024-04-16 02:55:06,25.4,36.5,
2024-04-16 02:45:06,25.3,36.0,
2024-04-16 02:35:06,25.4,35.9,
2024-04-16 02:25:06,25.4,35.9,
2024-04-16 02:15:06,25.4,36.0,
2024-04-16 02:05:06,25.4,36.5,
2024-04-16 01:55:06,25.4,36.0,
2024-04-16 01:45:06,25.4,35.9,
2024-04-16 01:35:06,25.4,36.5,
2024-04-16 01:25:06,25.4,35.9,
2024-04-16 01:15:06,25.4,35.9,
2024-04-16 01:05:06,25.4,36.5,
2024-04-16 00:55:06,25.4,35.9,
2024-04-16 00:45:06,25.4,36.5,
2024-04-16 00:35:06,25.4,35.9,
2024-04-16 00:25:06,25.4,36.0,
2024-04-16 00:15:06,25.4,36.5,
2024-04-16 00:05:06,25.4,36.0,
2024-04-15 23:55:06,25.4,35.9,
2024-04-15 23:45:06,25.4,36.0,
2024-04-15 23:35:06,25.4,36.0,
2024-04-15 23:25:06,25.4,35.9,
2024-04-15 23:15:06,25.4,36.0,
2024-04-15 23:05:06,25.4,36.5,
2024-04-15 22:55:06,25.4,36.0,
2024-04-15 22:45:06,25.4,36.5,
2024-04-15 22:35:06,25.5,36.0,
2024-04-15 22:25:06,25.5,36.5,
2024-04-15 22:15:06,25.4,36.0,
2024-04-15 22:05:06,25.5,36.0,
2024-04-15 21:55:06,25.5,36.0,
2024-04-15 21:45:06,25.5,36.5,
2024-04-15 21:35:06,25.5,36.0,
2024-04-15 21:25:06,25.5,36.0,
2024-04-15 21:15:06,25.5,36.0,
2024-04-15 21:05:06,25.5,36.5,
2024-04-15 20:55:06,25.5,36.5,
2024-04-15 20:45:06,25.6,36.0,
2024-04-15 20:35:06,25.6,36.0,
2024-04-15 20:25:06,25.6,36.0,
2024-04-15 20:15:06,25.6,36.5,
2024-04-15 20:05:06,25.6,36.0,
2024-04-15 19:55:06,25.6,36.0,
2024-04-15 19:45:06,25.6,36.5,
2024-04-15 19:35:06,25.6,36.0,
2024-04-15 19:25:06,25.6,36.0,
2024-04-15 19:15:06,25.6,36.0,
2024-04-15 19:05:06,25.6,36.0,
2024-04-15 18:55:06,25.6,36.0,
2024-04-15 18:45:06,25.6,36.0,
2024-04-15 18:35:06,25.7,36.0,
2024-04-15 18:25:06,25.7,36.0,
2024-04-15 18:15:06,25.7,36.0,
2024-04-15 18:05:06,25.7,36.0,
2024-04-15 17:55:06,25.7,36.0,
2024-04-15 17:45:06,25.7,36.0,
2024-04-15 17:35:06,25.7,36.0,
2024-04-15 17:25:06,25.7,36.0,
2024-04-15 17:15:06,25.7,36.0,
2024-04-15 17:05:06,25.7,36.0,
2024-04-15 16:55:06,25.8,36.0,
2024-04-15 16:45:06,25.8,36.0,
2024-04-15 16:35:06,25.8,36.0,
2024-04-15 16:25:06,25.8,36.0,
2024-04-15 16:15:06,25.8,36.0,
2024-04-15 16:05:06,25.9,36.0,
2024-04-15 15:55:06,25.9,36.0,
2024-04-15 15:45:06,25.9,36.0,
2024-04-15 15:35:06,25.9,36.0,
2024-04-15 15:25:06,26.0,36.0,
2024-04-15 15:15:06,26.0,36.0,
2024-04-15 15:05:06,26.1,36.0,
2024-04-15 14:55:06,26.1,36.0,
2024-04-15 14:45:06,26.1,36.0,
2024-04-15 14:35:06,26.1,36.0,
2024-04-15 14:25:06,26.1,35.5,
2024-04-15 14:15:06,26.1,36.0,
2024-04-15 14:05:06,26.0,35.5,
2024-04-15 13:55:06,26.0,36.0,
2024-04-15 13:45:06,26.0,35.5,
2024-04-15 13:35:06,26.0,35.5,
2024-04-15 13:25:06,25.9,35.5,
2024-04-15 13:15:06,25.9,35.4,
2024-04-15 13:05:06,25.9,35.5,
2024-04-15 12:55:06,25.9,35.4,
2024-04-15 12:45:06,25.9,35.4,
2024-04-15 12:35:06,25.9,34.9,
2024-04-15 12:25:06,25.8,34.9,
2024-04-15 12:15:06,25.8,34.9,
2024-04-15 12:05:06,25.8,34.9,
2024-04-15 11:55:06,25.8,34.9,
2024-04-15 11:45:06,25.8,34.9,
2024-04-15 11:35:06,25.8,34.9,
2024-04-15 11:25:06,25.8,34.9,